Location: Cicognara
(44.9500°N, 10.4667°E)
Time: 15:16:08
(UTC+00:00)

COBE Rocket - Pass Details

Date: 20 June 2021
Orbit: 679 x 782 km, 97.1° (Epoch: 02 August)

Event Time Altitude Azimuth Distance (km) Brightness Sun altitude
Exits shadow 22:22:09 42° 147° (SSE) 1,061 4.3 -20.4°
Maximum altitude 22:23:48 72° 76° (ENE) 788 4.0 -20.4°
Drops below altitude 10° 22:28:43 10° 352° (N) 2,239 7.6 -20.6°
Sets 22:30:59 0° 351° (N) 3,149 8.8 -20.7°
